EFW15AV EGKK-LEIB

Flight info

Callsign EFW15AV
Flight time 2h 4m
Altitude 35000
Route SFD Y47 DRAKE L151 SITET UN859 SOPIL DCT BALAN DCT EVPOK DCT NARAK DCT GAI DCT LOMRA DCT ROCAN/N0449F310 DCT PUMAL DCT XEPLA DCT BCN DCT CORDA
Aircraft A321/M-SDE3FGHIRWY/LB1

Departure

Time 2026-05-06 10:43
Airport London Gatwick Airport (EGKK)

Arrival

Time 2026-05-06 12:47
Airport Ibiza Airport (LEIB)
Time Latitude Longitude Altitude Speed Heading
2026-05-06 10:21 51.15575 -0.17009 211 ft 0 kts 167°
2026-05-06 10:31 51.15578 -0.17011 215 ft 3 kts 169°
2026-05-06 10:32 51.15602 -0.17013 209 ft 4 kts 175°
2026-05-06 10:32 51.15628 -0.17012 212 ft 4 kts 198°
2026-05-06 10:32 51.15648 -0.16992 216 ft 4 kts 245°
2026-05-06 10:32 51.15651 -0.16980 216 ft 0 kts 257°
2026-05-06 10:34 51.15651 -0.16986 216 ft 3 kts 257°
2026-05-06 10:35 51.15637 -0.17088 204 ft 16 kts 258°
2026-05-06 10:35 51.15606 -0.17282 205 ft 19 kts 255°
2026-05-06 10:35 51.15538 -0.17428 209 ft 18 kts 180°
2026-05-06 10:35 51.15416 -0.17391 206 ft 18 kts 167°
2026-05-06 10:36 51.15307 -0.17416 207 ft 16 kts 234°
2026-05-06 10:36 51.15281 -0.17588 203 ft 16 kts 257°
2026-05-06 10:36 51.15255 -0.17767 206 ft 17 kts 256°
2026-05-06 10:36 51.15229 -0.17954 215 ft 18 kts 257°
2026-05-06 10:37 51.15201 -0.18152 214 ft 20 kts 257°
2026-05-06 10:37 51.15178 -0.18378 203 ft 21 kts 262°
2026-05-06 10:37 51.15147 -0.18607 203 ft 21 kts 257°
2026-05-06 10:37 51.15116 -0.18843 211 ft 22 kts 258°
2026-05-06 10:38 51.15083 -0.19083 211 ft 22 kts 257°
2026-05-06 10:38 51.15048 -0.19325 206 ft 23 kts 258°
2026-05-06 10:38 51.15016 -0.19572 210 ft 23 kts 258°
2026-05-06 10:38 51.14980 -0.19823 210 ft 23 kts 257°
2026-05-06 10:39 51.14944 -0.20082 210 ft 24 kts 257°
2026-05-06 10:39 51.14907 -0.20348 206 ft 25 kts 258°
2026-05-06 10:39 51.14871 -0.20618 209 ft 25 kts 257°
2026-05-06 10:39 51.14832 -0.20891 207 ft 25 kts 257°
2026-05-06 10:40 51.14791 -0.21162 210 ft 25 kts 247°
2026-05-06 10:40 51.14730 -0.21399 214 ft 19 kts 200°
2026-05-06 10:40 51.14635 -0.21337 206 ft 5 kts 155°
2026-05-06 10:40 51.14625 -0.21331 208 ft 0 kts 159°
2026-05-06 10:41 51.14612 -0.21324 205 ft 6 kts 163°
2026-05-06 10:41 51.14542 -0.21269 208 ft 16 kts 134°
2026-05-06 10:41 51.14525 -0.21146 202 ft 0 kts 78°
2026-05-06 10:42 51.14527 -0.21126 210 ft 13 kts 78°
2026-05-06 10:42 51.14601 -0.20585 211 ft 85 kts 77°
2026-05-06 10:42 51.14777 -0.19331 207 ft 144 kts 77°
2026-05-06 10:43 51.14989 -0.17631 663 ft 155 kts 75°
2026-05-06 10:43 51.15209 -0.15942 1411 ft 159 kts 73°
2026-05-06 10:43 51.15466 -0.14120 1760 ft 179 kts 73°
2026-05-06 10:44 51.16078 -0.09830 2344 ft 219 kts 75°
2026-05-06 10:44 51.16012 -0.07391 3024 ft 231 kts 109°
2026-05-06 10:44 51.14955 -0.05363 3520 ft 254 kts 147°
2026-05-06 10:44 51.13253 -0.04241 3917 ft 274 kts 163°
2026-05-06 10:45 51.11363 -0.03587 4566 ft 282 kts 170°
2026-05-06 10:45 51.09405 -0.03081 5244 ft 287 kts 171°
2026-05-06 10:45 51.07443 -0.02445 6029 ft 289 kts 168°
2026-05-06 10:45 51.05615 -0.01716 6751 ft 290 kts 166°
2026-05-06 10:46 51.03662 -0.00847 7484 ft 292 kts 164°
2026-05-06 10:46 51.01701 0.00073 8201 ft 295 kts 163°
2026-05-06 10:46 50.99754 0.01007 8895 ft 298 kts 163°
2026-05-06 10:46 50.97764 0.01964 9622 ft 300 kts 163°
2026-05-06 10:47 50.95766 0.02921 10306 ft 301 kts 163°
2026-05-06 10:47 50.93756 0.03880 10938 ft 303 kts 164°
2026-05-06 10:47 50.91685 0.04861 11486 ft 308 kts 164°
2026-05-06 10:47 50.89616 0.05835 12117 ft 310 kts 164°
2026-05-06 10:48 50.87573 0.06795 12801 ft 311 kts 165°
2026-05-06 10:48 50.85490 0.07772 13427 ft 313 kts 165°
2026-05-06 10:48 50.83389 0.08754 14004 ft 317 kts 165°
2026-05-06 10:48 50.81262 0.09749 14538 ft 320 kts 165°
2026-05-06 10:49 50.79122 0.10752 15103 ft 322 kts 165°
2026-05-06 10:49 50.76948 0.11549 15693 ft 321 kts 174°
2026-05-06 10:49 50.75442 0.11669 16030 ft 323 kts 183°
2026-05-06 10:49 50.73174 0.11186 16159 ft 336 kts 195°
2026-05-06 10:50 50.70847 0.10308 16284 ft 352 kts 195°
2026-05-06 10:50 50.67606 0.09107 16465 ft 371 kts 194°
2026-05-06 10:50 50.65046 0.08172 16600 ft 384 kts 195°
2026-05-06 10:50 50.62401 0.07213 16747 ft 396 kts 194°
2026-05-06 10:51 50.60578 0.06558 16972 ft 400 kts 194°
2026-05-06 10:51 50.57849 0.05583 17368 ft 404 kts 193°
2026-05-06 10:51 50.55100 0.04603 17796 ft 407 kts 195°
2026-05-06 10:51 50.52702 0.03748 18179 ft 409 kts 195°
2026-05-06 10:52 50.50011 0.02785 18563 ft 411 kts 194°
2026-05-06 10:52 50.47222 0.01781 18965 ft 413 kts 194°
2026-05-06 10:52 50.44416 0.00768 19383 ft 414 kts 194°
2026-05-06 10:52 50.41606 -0.00243 19805 ft 415 kts 193°
2026-05-06 10:53 50.38787 -0.01252 20179 ft 418 kts 194°
2026-05-06 10:53 50.35948 -0.02271 20606 ft 419 kts 194°
2026-05-06 10:53 50.33102 -0.03288 21038 ft 420 kts 194°
2026-05-06 10:53 50.30249 -0.04307 21438 ft 422 kts 194°
2026-05-06 10:54 50.27382 -0.05325 21837 ft 423 kts 194°
2026-05-06 10:54 50.24477 -0.06165 22249 ft 426 kts 187°
2026-05-06 10:54 50.21507 -0.06250 22632 ft 429 kts 177°
2026-05-06 10:54 50.18552 -0.05512 22994 ft 433 kts 167°
2026-05-06 10:55 50.15690 -0.03974 23346 ft 437 kts 157°
2026-05-06 10:55 50.12912 -0.02029 23694 ft 439 kts 157°
2026-05-06 10:55 50.10102 -0.00163 23989 ft 440 kts 162°
2026-05-06 10:55 50.07153 0.01145 24248 ft 442 kts 167°
2026-05-06 10:56 50.04164 0.02312 24541 ft 444 kts 167°
2026-05-06 10:56 50.01161 0.03482 24841 ft 446 kts 167°
2026-05-06 10:56 49.98148 0.04657 25139 ft 448 kts 167°
2026-05-06 10:56 49.95116 0.05848 25396 ft 450 kts 166°
2026-05-06 10:57 49.92074 0.07051 25672 ft 453 kts 166°
2026-05-06 10:57 49.89012 0.08258 25961 ft 455 kts 166°
2026-05-06 10:57 49.85939 0.09462 26228 ft 457 kts 166°
2026-05-06 10:57 49.82850 0.10671 26503 ft 458 kts 166°
2026-05-06 10:58 49.79749 0.11883 26764 ft 461 kts 166°
2026-05-06 10:58 49.76637 0.13098 27028 ft 462 kts 166°
2026-05-06 10:58 49.73518 0.14314 27258 ft 464 kts 166°
2026-05-06 10:58 49.70385 0.15532 27493 ft 465 kts 166°
2026-05-06 10:59 49.67241 0.16753 27686 ft 467 kts 166°
2026-05-06 10:59 49.64085 0.18003 27937 ft 467 kts 165°
2026-05-06 10:59 49.60980 0.19256 28226 ft 467 kts 165°
2026-05-06 10:59 49.57798 0.20552 28543 ft 466 kts 165°
2026-05-06 11:00 49.54713 0.21811 28857 ft 465 kts 165°
2026-05-06 11:00 49.51584 0.23083 29171 ft 464 kts 165°
2026-05-06 11:00 49.48466 0.24344 29471 ft 464 kts 165°
2026-05-06 11:00 49.45330 0.25602 29702 ft 465 kts 165°
2026-05-06 11:01 49.42197 0.26847 30069 ft 465 kts 165°
2026-05-06 11:01 49.39065 0.28089 30385 ft 466 kts 165°
2026-05-06 11:01 49.35931 0.29333 30700 ft 464 kts 165°
2026-05-06 11:01 49.32810 0.30576 30970 ft 463 kts 165°
2026-05-06 11:02 49.29700 0.31818 31249 ft 462 kts 164°
2026-05-06 11:02 49.26597 0.33094 31474 ft 461 kts 163°
2026-05-06 11:02 49.23498 0.34404 31692 ft 462 kts 163°
2026-05-06 11:02 49.20409 0.35725 31924 ft 461 kts 163°
2026-05-06 11:03 49.17313 0.37049 32122 ft 462 kts 163°
2026-05-06 11:03 49.14216 0.38371 32365 ft 461 kts 163°
2026-05-06 11:03 49.11133 0.39678 32687 ft 460 kts 163°
2026-05-06 11:03 49.08047 0.40977 33030 ft 458 kts 164°
2026-05-06 11:04 49.04978 0.42257 33287 ft 457 kts 164°
2026-05-06 11:04 49.01906 0.43536 33505 ft 458 kts 163°
2026-05-06 11:04 48.98838 0.44811 33837 ft 457 kts 163°
2026-05-06 11:04 48.95771 0.46081 34037 ft 457 kts 164°
2026-05-06 11:05 48.92705 0.47352 34230 ft 456 kts 163°
2026-05-06 11:05 48.89651 0.48627 34416 ft 456 kts 164°
2026-05-06 11:05 48.86596 0.49902 34592 ft 455 kts 164°
2026-05-06 11:05 48.83539 0.51172 34783 ft 454 kts 164°
2026-05-06 11:06 48.80493 0.52437 34920 ft 455 kts 164°
2026-05-06 11:06 48.74379 0.54921 34953 ft 456 kts 165°
2026-05-06 11:07 48.68234 0.57304 34947 ft 456 kts 165°
2026-05-06 11:07 48.62093 0.59672 34955 ft 455 kts 165°
2026-05-06 11:08 48.55950 0.62058 34945 ft 456 kts 165°
2026-05-06 11:08 48.49803 0.64465 34955 ft 457 kts 165°
2026-05-06 11:09 48.43672 0.66962 34968 ft 457 kts 164°
2026-05-06 11:09 48.37536 0.69488 34966 ft 457 kts 164°
2026-05-06 11:10 48.31400 0.71985 34967 ft 457 kts 164°
2026-05-06 11:10 48.25260 0.74461 34962 ft 457 kts 164°
2026-05-06 11:11 48.19123 0.76906 34964 ft 456 kts 165°
2026-05-06 11:11 48.13005 0.79295 34963 ft 456 kts 165°
2026-05-06 11:12 48.06903 0.81675 34963 ft 456 kts 165°
2026-05-06 11:12 48.00775 0.84080 34966 ft 455 kts 165°
2026-05-06 11:13 47.94655 0.86469 34966 ft 454 kts 165°
2026-05-06 11:13 47.88539 0.88835 34963 ft 454 kts 165°
2026-05-06 11:14 47.82432 0.91204 34956 ft 453 kts 165°
2026-05-06 11:14 47.76333 0.93586 34958 ft 453 kts 165°
2026-05-06 11:15 47.70231 0.95948 34957 ft 454 kts 165°
2026-05-06 11:15 47.64122 0.98300 34951 ft 454 kts 165°
2026-05-06 11:16 47.58009 1.00651 34950 ft 454 kts 165°
2026-05-06 11:16 47.51891 1.03000 34950 ft 454 kts 165°
2026-05-06 11:17 47.45762 1.05342 34955 ft 455 kts 165°
2026-05-06 11:17 47.39489 1.06382 34947 ft 455 kts 181°
2026-05-06 11:18 47.33155 1.06222 34939 ft 456 kts 181°
2026-05-06 11:18 47.26802 1.06063 34933 ft 457 kts 180°
2026-05-06 11:19 47.20446 1.05907 34935 ft 457 kts 181°
2026-05-06 11:19 47.14085 1.05766 34936 ft 458 kts 181°
2026-05-06 11:20 47.07711 1.05629 34936 ft 458 kts 181°
2026-05-06 11:20 47.01342 1.05474 34944 ft 458 kts 181°
2026-05-06 11:21 46.94964 1.05230 34938 ft 458 kts 182°
2026-05-06 11:21 46.88593 1.04921 34938 ft 458 kts 182°
2026-05-06 11:22 46.82216 1.04620 34938 ft 458 kts 182°
2026-05-06 11:22 46.75841 1.04347 34938 ft 458 kts 181°
2026-05-06 11:23 46.69506 1.04085 34934 ft 458 kts 182°
2026-05-06 11:23 46.63130 1.03825 34935 ft 458 kts 181°
2026-05-06 11:24 46.56754 1.03547 34939 ft 458 kts 182°
2026-05-06 11:24 46.50391 1.03794 34939 ft 459 kts 171°
2026-05-06 11:25 46.44160 1.05835 34931 ft 459 kts 167°
2026-05-06 11:25 46.37932 1.07918 34934 ft 459 kts 167°
2026-05-06 11:26 46.31698 1.09978 34932 ft 459 kts 167°
2026-05-06 11:26 46.25466 1.12053 34935 ft 460 kts 167°
2026-05-06 11:27 46.19232 1.14125 34938 ft 460 kts 168°
2026-05-06 11:27 46.13003 1.16184 34936 ft 459 kts 168°
2026-05-06 11:28 46.06767 1.18240 34942 ft 459 kts 168°
2026-05-06 11:28 46.00538 1.20295 34942 ft 459 kts 168°
2026-05-06 11:29 45.94369 1.22331 34940 ft 458 kts 169°
2026-05-06 11:29 45.88155 1.24367 34945 ft 458 kts 168°
2026-05-06 11:30 45.81944 1.26398 34944 ft 457 kts 168°
2026-05-06 11:30 45.75739 1.28432 34941 ft 458 kts 169°
2026-05-06 11:31 45.69528 1.30451 34939 ft 457 kts 168°
2026-05-06 11:31 45.63406 1.32435 34940 ft 457 kts 168°
2026-05-06 11:32 45.57120 1.34476 34945 ft 457 kts 168°
2026-05-06 11:32 45.50907 1.36490 34939 ft 457 kts 169°
2026-05-06 11:33 45.44702 1.38491 34946 ft 457 kts 169°
2026-05-06 11:33 45.38495 1.40494 34949 ft 458 kts 169°
2026-05-06 11:34 45.32321 1.42472 34955 ft 458 kts 169°
2026-05-06 11:34 45.26106 1.44473 34958 ft 458 kts 169°
2026-05-06 11:35 45.19896 1.46461 34963 ft 458 kts 169°
2026-05-06 11:35 45.13680 1.48440 34960 ft 458 kts 169°
2026-05-06 11:36 45.07463 1.50423 34961 ft 458 kts 169°
2026-05-06 11:36 45.01244 1.52411 34965 ft 458 kts 169°
2026-05-06 11:37 44.96072 1.54049 34961 ft 458 kts 170°
2026-05-06 11:37 44.89850 1.56012 34969 ft 458 kts 170°
2026-05-06 11:38 44.83640 1.57973 34969 ft 457 kts 170°
2026-05-06 11:38 44.77428 1.59925 34971 ft 457 kts 170°
2026-05-06 11:39 44.71229 1.61879 34974 ft 457 kts 170°
2026-05-06 11:39 44.65028 1.63827 34978 ft 457 kts 170°
2026-05-06 11:40 44.58817 1.65768 34967 ft 457 kts 170°
2026-05-06 11:40 44.52623 1.67702 34982 ft 456 kts 171°
2026-05-06 11:41 44.46431 1.69628 34986 ft 456 kts 171°
2026-05-06 11:41 44.40242 1.71558 34972 ft 455 kts 171°
2026-05-06 11:42 44.34056 1.73488 34996 ft 455 kts 171°
2026-05-06 11:42 44.27879 1.75361 34997 ft 454 kts 172°
2026-05-06 11:43 44.21670 1.76818 34997 ft 452 kts 175°
2026-05-06 11:43 44.15450 1.78046 34996 ft 451 kts 175°
2026-05-06 11:44 44.06132 1.80026 35001 ft 452 kts 174°
2026-05-06 11:44 43.99930 1.81416 34986 ft 451 kts 175°
2026-05-06 11:45 43.93739 1.82718 34997 ft 449 kts 177°
2026-05-06 11:45 43.87522 1.83434 34999 ft 447 kts 181°
2026-05-06 11:46 43.81317 1.83854 34994 ft 446 kts 181°
2026-05-06 11:46 43.75116 1.84344 35007 ft 446 kts 181°
2026-05-06 11:47 43.68980 1.84948 35004 ft 445 kts 180°
2026-05-06 11:47 43.62795 1.85579 35004 ft 445 kts 180°
2026-05-06 11:48 43.56710 1.86178 34994 ft 444 kts 181°
2026-05-06 11:48 43.50545 1.86756 35000 ft 443 kts 181°
2026-05-06 11:49 43.44400 1.87350 34994 ft 442 kts 181°
2026-05-06 11:49 43.38271 1.87939 34976 ft 441 kts 181°
2026-05-06 11:50 43.32146 1.88522 34986 ft 441 kts 181°
2026-05-06 11:50 43.26035 1.89101 34989 ft 440 kts 181°
2026-05-06 11:51 43.19928 1.89677 34972 ft 440 kts 181°
2026-05-06 11:51 43.13822 1.90268 34982 ft 440 kts 181°
2026-05-06 11:52 43.07719 1.90860 34989 ft 440 kts 181°
2026-05-06 11:52 43.01629 1.91438 34990 ft 438 kts 181°
2026-05-06 11:53 42.95564 1.92008 34979 ft 436 kts 182°
2026-05-06 11:53 42.89526 1.92574 35000 ft 434 kts 182°
2026-05-06 11:54 42.83499 1.93142 34983 ft 433 kts 182°
2026-05-06 11:54 42.77530 1.93707 34981 ft 433 kts 182°
2026-05-06 11:55 42.71526 1.94268 34975 ft 432 kts 182°
2026-05-06 11:55 42.65529 1.94892 34962 ft 433 kts 180°
2026-05-06 11:56 42.59531 1.96030 34945 ft 437 kts 177°
2026-05-06 11:56 42.53540 1.97387 34958 ft 436 kts 177°
2026-05-06 11:57 42.47545 1.98680 34958 ft 436 kts 178°
2026-05-06 11:57 42.41554 1.99891 34954 ft 435 kts 178°
2026-05-06 11:58 42.35554 2.01040 34931 ft 434 kts 180°
2026-05-06 11:58 42.29566 2.01731 34938 ft 431 kts 183°
2026-05-06 11:59 42.23576 2.02161 34943 ft 431 kts 183°
2026-05-06 11:59 42.17590 2.02630 34932 ft 431 kts 183°
2026-05-06 12:00 42.11591 2.03201 34946 ft 432 kts 182°
2026-05-06 12:00 42.05598 2.03793 34956 ft 431 kts 182°
2026-05-06 12:01 41.99610 2.04364 34954 ft 431 kts 182°
2026-05-06 12:01 41.93619 2.04918 34937 ft 431 kts 182°
2026-05-06 12:02 41.87669 2.05464 34958 ft 431 kts 182°
2026-05-06 12:02 41.81690 2.06030 34970 ft 431 kts 182°
2026-05-06 12:03 41.75719 2.06599 34982 ft 430 kts 182°
2026-05-06 12:03 41.69745 2.07152 34971 ft 430 kts 183°
2026-05-06 12:04 41.63780 2.07708 34987 ft 429 kts 183°
2026-05-06 12:04 41.57821 2.08272 34994 ft 429 kts 182°
2026-05-06 12:05 41.51857 2.08817 34980 ft 429 kts 183°
2026-05-06 12:05 41.45897 2.09365 34983 ft 430 kts 183°
2026-05-06 12:06 41.39927 2.09928 34995 ft 430 kts 183°
2026-05-06 12:06 41.33965 2.10479 34996 ft 429 kts 183°
2026-05-06 12:07 41.28009 2.11093 34975 ft 430 kts 181°
2026-05-06 12:07 41.22045 2.12085 34987 ft 433 kts 179°
2026-05-06 12:08 41.16083 2.13209 34989 ft 432 kts 179°
2026-05-06 12:08 41.10166 2.14250 34969 ft 431 kts 180°
2026-05-06 12:09 41.04212 2.15236 34982 ft 431 kts 180°
2026-05-06 12:09 40.98264 2.16207 34987 ft 431 kts 180°
2026-05-06 12:10 40.92319 2.17190 34994 ft 431 kts 180°
2026-05-06 12:10 40.86369 2.18180 34968 ft 431 kts 180°
2026-05-06 12:11 40.80428 2.19170 34983 ft 431 kts 180°
2026-05-06 12:11 40.74479 2.20161 34992 ft 430 kts 180°
2026-05-06 12:12 40.68531 2.21140 34996 ft 430 kts 180°
2026-05-06 12:12 40.62589 2.22115 34996 ft 430 kts 180°
2026-05-06 12:13 40.56641 2.23095 35000 ft 431 kts 180°
2026-05-06 12:13 40.50697 2.24082 35002 ft 431 kts 180°
2026-05-06 12:14 40.44748 2.25057 34970 ft 431 kts 180°
2026-05-06 12:14 40.38807 2.26135 34985 ft 433 kts 178°
2026-05-06 12:15 40.32880 2.27669 34990 ft 435 kts 175°
2026-05-06 12:15 40.26964 2.29331 34973 ft 434 kts 176°
2026-05-06 12:16 40.21054 2.30912 34953 ft 433 kts 176°
2026-05-06 12:16 40.15142 2.32426 34971 ft 433 kts 177°
2026-05-06 12:17 40.09228 2.33925 34981 ft 433 kts 176°
2026-05-06 12:17 40.03358 2.35429 34986 ft 433 kts 176°
2026-05-06 12:18 39.97447 2.36953 34968 ft 433 kts 176°
2026-05-06 12:18 39.91532 2.38476 34971 ft 433 kts 176°
2026-05-06 12:19 39.85617 2.39992 34985 ft 433 kts 176°
2026-05-06 12:19 39.79696 2.41499 34974 ft 433 kts 176°
2026-05-06 12:20 39.73784 2.42385 34942 ft 421 kts 189°
2026-05-06 12:20 39.68003 2.41575 34958 ft 418 kts 193°
2026-05-06 12:21 39.62229 2.40686 34965 ft 418 kts 193°
2026-05-06 12:21 39.56510 2.39519 34964 ft 411 kts 202°
2026-05-06 12:22 39.51471 2.36371 34652 ft 397 kts 219°
2026-05-06 12:22 39.49226 2.34286 33960 ft 398 kts 219°
2026-05-06 12:22 39.46979 2.32181 33127 ft 399 kts 219°
2026-05-06 12:23 39.44725 2.30062 32262 ft 402 kts 219°
2026-05-06 12:23 39.43191 2.28621 31691 ft 404 kts 219°
2026-05-06 12:23 39.40914 2.26486 30824 ft 406 kts 219°
2026-05-06 12:23 39.38641 2.24366 29936 ft 409 kts 219°
2026-05-06 12:24 39.36290 2.22183 28846 ft 413 kts 219°
2026-05-06 12:24 39.33974 2.20037 27764 ft 417 kts 218°
2026-05-06 12:24 39.31579 2.17819 26603 ft 421 kts 218°
2026-05-06 12:24 39.29229 2.15645 25797 ft 419 kts 218°
2026-05-06 12:25 39.26870 2.13468 25088 ft 415 kts 218°
2026-05-06 12:25 39.24530 2.11308 24385 ft 411 kts 218°
2026-05-06 12:25 39.22214 2.09169 23689 ft 408 kts 218°
2026-05-06 12:25 39.19918 2.07046 22915 ft 404 kts 218°
2026-05-06 12:26 39.17641 2.04944 22115 ft 401 kts 218°
2026-05-06 12:26 39.15382 2.02862 21335 ft 397 kts 218°
2026-05-06 12:26 39.13143 2.00797 20566 ft 394 kts 218°
2026-05-06 12:26 39.10892 1.98723 19796 ft 391 kts 218°
2026-05-06 12:27 39.08687 1.96694 19059 ft 389 kts 217°
2026-05-06 12:27 39.06524 1.94704 18360 ft 386 kts 217°
2026-05-06 12:27 39.04342 1.92697 17568 ft 384 kts 217°
2026-05-06 12:27 39.02144 1.90681 16832 ft 381 kts 217°
2026-05-06 12:28 39.00040 1.88719 16131 ft 377 kts 220°
2026-05-06 12:28 38.98146 1.86425 15427 ft 372 kts 230°
2026-05-06 12:28 38.96591 1.83802 14753 ft 368 kts 237°
2026-05-06 12:28 38.95175 1.81079 14085 ft 365 kts 237°
2026-05-06 12:29 38.93766 1.78380 13371 ft 362 kts 237°
2026-05-06 12:29 38.92363 1.75702 12608 ft 360 kts 237°
2026-05-06 12:29 38.90968 1.73046 11837 ft 358 kts 237°
2026-05-06 12:29 38.89577 1.70403 11102 ft 356 kts 237°
2026-05-06 12:30 38.88193 1.67774 10379 ft 355 kts 237°
2026-05-06 12:30 38.86818 1.65158 9812 ft 349 kts 237°
2026-05-06 12:30 38.85492 1.62639 9671 ft 331 kts 237°
2026-05-06 12:30 38.84308 1.60205 9538 ft 313 kts 243°
2026-05-06 12:31 38.83472 1.57711 9401 ft 297 kts 252°
2026-05-06 12:31 38.82909 1.55221 9270 ft 284 kts 255°
2026-05-06 12:31 38.82382 1.52822 9017 ft 276 kts 255°
2026-05-06 12:31 38.81858 1.50465 8660 ft 273 kts 255°
2026-05-06 12:32 38.81347 1.48170 8515 ft 262 kts 254°
2026-05-06 12:32 38.80857 1.45970 8383 ft 251 kts 254°
2026-05-06 12:32 38.80376 1.43861 8246 ft 242 kts 251°
2026-05-06 12:32 38.79737 1.41910 7923 ft 241 kts 243°
2026-05-06 12:33 38.78948 1.40014 7555 ft 240 kts 242°
2026-05-06 12:33 38.78169 1.38135 7149 ft 238 kts 242°
2026-05-06 12:33 38.77391 1.36255 6724 ft 239 kts 242°
2026-05-06 12:33 38.76613 1.34376 6320 ft 238 kts 241°
2026-05-06 12:34 38.75835 1.32498 5873 ft 239 kts 241°
2026-05-06 12:34 38.75055 1.30615 5418 ft 239 kts 241°
2026-05-06 12:34 38.74277 1.28734 5045 ft 238 kts 241°
2026-05-06 12:34 38.73501 1.26859 5003 ft 240 kts 242°
2026-05-06 12:35 38.72713 1.24961 5002 ft 242 kts 241°
2026-05-06 12:35 38.71921 1.23063 5004 ft 242 kts 241°
2026-05-06 12:35 38.71124 1.21161 5009 ft 243 kts 241°
2026-05-06 12:35 38.70327 1.19256 5009 ft 242 kts 241°
2026-05-06 12:36 38.69535 1.17357 5008 ft 242 kts 241°
2026-05-06 12:36 38.68743 1.15455 5008 ft 241 kts 241°
2026-05-06 12:36 38.67951 1.13557 5008 ft 241 kts 241°
2026-05-06 12:36 38.67158 1.11658 5010 ft 242 kts 240°
2026-05-06 12:37 38.66363 1.09759 5013 ft 242 kts 240°
2026-05-06 12:37 38.65567 1.07862 5011 ft 242 kts 240°
2026-05-06 12:37 38.64795 1.05952 5015 ft 242 kts 246°
2026-05-06 12:37 38.64351 1.03876 5020 ft 243 kts 261°
2026-05-06 12:38 38.64091 1.01735 5016 ft 243 kts 260°
2026-05-06 12:38 38.63948 0.99589 5009 ft 242 kts 275°
2026-05-06 12:38 38.64456 0.97551 5015 ft 243 kts 301°
2026-05-06 12:38 38.65597 0.95989 5018 ft 242 kts 327°
2026-05-06 12:39 38.67154 0.95249 5019 ft 240 kts 354°
2026-05-06 12:39 38.68796 0.95476 5018 ft 238 kts 22°
2026-05-06 12:39 38.70167 0.96607 5019 ft 235 kts 48°
2026-05-06 12:39 38.71052 0.98352 5024 ft 235 kts 63°
2026-05-06 12:40 38.71820 1.00200 5017 ft 235 kts 63°
2026-05-06 12:40 38.72579 1.02016 5015 ft 234 kts 63°
2026-05-06 12:40 38.73348 1.03853 5014 ft 234 kts 63°
2026-05-06 12:40 38.74115 1.05684 5010 ft 227 kts 63°
2026-05-06 12:41 38.74839 1.07413 4868 ft 217 kts 63°
2026-05-06 12:41 38.75521 1.09043 4634 ft 198 kts 63°
2026-05-06 12:41 38.76143 1.10531 4383 ft 179 kts 63°
2026-05-06 12:41 38.76697 1.11856 4151 ft 159 kts 63°
2026-05-06 12:42 38.77195 1.13047 3935 ft 147 kts 64°
2026-05-06 12:42 38.77668 1.14183 3745 ft 143 kts 64°
2026-05-06 12:42 38.78138 1.15310 3554 ft 143 kts 62°
2026-05-06 12:42 38.78609 1.16439 3377 ft 143 kts 63°
2026-05-06 12:43 38.79076 1.17560 3193 ft 142 kts 63°
2026-05-06 12:43 38.79537 1.18666 2992 ft 141 kts 63°
2026-05-06 12:43 38.80003 1.19784 2799 ft 141 kts 63°
2026-05-06 12:43 38.80470 1.20905 2613 ft 142 kts 62°
2026-05-06 12:44 38.80932 1.22014 2422 ft 141 kts 62°
2026-05-06 12:44 38.81390 1.23114 2238 ft 139 kts 61°
2026-05-06 12:44 38.81845 1.24208 2051 ft 140 kts 62°
2026-05-06 12:44 38.82303 1.25309 1864 ft 140 kts 60°
2026-05-06 12:45 38.82757 1.26401 1686 ft 138 kts 61°
2026-05-06 12:45 38.83208 1.27486 1498 ft 138 kts 61°
2026-05-06 12:45 38.84109 1.29653 1130 ft 137 kts 62°
2026-05-06 12:46 38.84562 1.30745 931 ft 140 kts 62°
2026-05-06 12:46 38.85013 1.31833 774 ft 137 kts 63°
2026-05-06 12:46 38.85462 1.32912 574 ft 136 kts 64°
2026-05-06 12:46 38.85912 1.33989 407 ft 135 kts 65°
2026-05-06 12:47 38.86354 1.35055 213 ft 136 kts 65°
2026-05-06 12:47 38.86794 1.36132 34 ft 135 kts 65°
2026-05-06 12:47 38.87186 1.37079 11 ft 97 kts 62°
2026-05-06 12:47 38.87428 1.37486 10 ft 41 kts 32°
2026-05-06 12:48 38.87512 1.37142 9 ft 0 kts 332°